• In Belgien
  • Länderverzeichnis
  • Für 7 Tage
  • Wassertemperatur
  • Satellitenkarten
  • Wetterkarte
  • Widgets
  • user-avatar
    Anmelden

    Stündliche Wetter Abowian

    Heute, 23 Juli, Montag

    Zeit Temperatur Niederschläge Wind Luftdruck Luftfeuchtigkeit
    00:00 +21°C° 0,3 mm 2 m/S 668 mmHg 79%
    01:00 +20°C° 0,2 mm 2 m/S 668 mmHg 80%
    02:00 +20°C° 0,2 mm 2 m/S 667 mmHg 81%
    03:00 +19°C° 0 mm 2 m/S 667 mmHg 82%
    04:00 +19°C° 0,1 mm 2 m/S 667 mmHg 80%
    05:00 +20°C° 0,1 mm 2 m/S 667 mmHg 79%
    06:00 +20°C° 0,1 mm 2 m/S 667 mmHg 77%
    07:00 +23°C° 0,1 mm 2 m/S 667 mmHg 69%
    08:00 +24°C° 0,1 mm 2 m/S 667 mmHg 61%
    09:00 +26°C° 0 mm 2 m/S 667 mmHg 55%
    10:00 +27°C° 0,4 mm 2 m/S 667 mmHg 51%
    11:00 +28°C° 0,4 mm 2 m/S 667 mmHg 47%
    12:00 +30°C° 0,4 mm 2 m/S 667 mmHg 43%
    13:00 +30°C° 0,4 mm 2 m/S 667 mmHg 41%
    14:00 +31°C° 0,4 mm 2 m/S 667 mmHg 39%
    15:00 +31°C° 0,4 mm 2 m/S 667 mmHg 37%
    16:00 +31°C° 0,5 mm 2 m/S 667 mmHg 39%
    17:00 +30°C° 0,5 mm 2 m/S 667 mmHg 41%
    18:00 +30°C° 0,5 mm 2 m/S 667 mmHg 43%
    19:00 +28°C° 0,5 mm 2 m/S 667 mmHg 50%
    20:00 +26°C° 0,5 mm 2 m/S 667 mmHg 56%
    21:00 +24°C° 0,5 mm 2 m/S 667 mmHg 63%
    22:00 +23°C° 0,5 mm 2 m/S 667 mmHg 65%
    23:00 +23°C° 0,5 mm 2 m/S 667 mmHg 67%

    Morgen, 24 Juli, Dienstag

    Zeit Temperatur Niederschläge Wind Luftdruck Luftfeuchtigkeit
    00:00 +21°C° 0,5 mm 2 m/S 667 mmHg 69%
    01:00 +20°C° 0,1 mm 2 m/S 667 mmHg 70%
    02:00 +21°C° 0,1 mm 1 m/S 667 mmHg 71%
    03:00 +21°C° 0,1 mm 1 m/S 667 mmHg 73%
    04:00 +21°C° 0 mm 1 m/S 667 mmHg 71%
    05:00 +22°C° 0 mm 1 m/S 667 mmHg 69%
    06:00 +22°C° 0 mm 1 m/S 667 mmHg 67%
    07:00 +24°C° 0 mm 1 m/S 668 mmHg 59%
    08:00 +27°C° 0 mm 2 m/S 668 mmHg 50%
    09:00 +29°C° 0 mm 2 m/S 668 mmHg 42%
    10:00 +30°C° 0 mm 2 m/S 668 mmHg 38%
    11:00 +32°C° 0 mm 2 m/S 668 mmHg 35%
    12:00 +34°C° 0 mm 3 m/S 668 mmHg 31%
    13:00 +35°C° 0 mm 3 m/S 668 mmHg 30%
    14:00 +35°C° 0 mm 3 m/S 668 mmHg 28%
    15:00 +36°C° 0 mm 3 m/S 668 mmHg 27%
    16:00 +35°C° 0 mm 3 m/S 668 mmHg 30%
    17:00 +34°C° 0 mm 2 m/S 668 mmHg 32%
    18:00 +34°C° 0 mm 2 m/S 668 mmHg 35%
    19:00 +30°C° 0 mm 2 m/S 668 mmHg 40%
    20:00 +28°C° 0 mm 2 m/S 668 mmHg 46%
    21:00 +26°C° 0 mm 2 m/S 668 mmHg 51%
    22:00 +26°C° 0 mm 2 m/S 668 mmHg 55%
    23:00 +25°C° 0 mm 2 m/S 668 mmHg 58%

    übermorgen, 25 Juli, Mittwoch

    Zeit Temperatur Niederschläge Wind Luftdruck Luftfeuchtigkeit
    00:00 +25°C° 0 mm 2 m/S 668 mmHg 62%
    01:00 +24°C° 0 mm 2 m/S 668 mmHg 63%
    02:00 +24°C° 0 mm 2 m/S 668 mmHg 64%
    03:00 +24°C° 0 mm 2 m/S 668 mmHg 65%
    04:00 +24°C° 0 mm 2 m/S 669 mmHg 63%
    05:00 +24°C° 0 mm 1 m/S 669 mmHg 61%
    06:00 +25°C° 0 mm 1 m/S 669 mmHg 59%
    07:00 +27°C° 0 mm 2 m/S 669 mmHg 50%
    08:00 +30°C° 0 mm 2 m/S 670 mmHg 42%
    09:00 +32°C° 0 mm 2 m/S 670 mmHg 33%
    10:00 +34°C° 0 mm 2 m/S 670 mmHg 30%
    11:00 +36°C° 0 mm 3 m/S 670 mmHg 27%
    12:00 +37°C° 0 mm 3 m/S 670 mmHg 24%
    13:00 +38°C° 0 mm 3 m/S 669 mmHg 23%
    14:00 +38°C° 0 mm 4 m/S 669 mmHg 23%
    15:00 +40°C° 0 mm 4 m/S 669 mmHg 22%
    16:00 +38°C° 0 mm 3 m/S 668 mmHg 25%
    17:00 +37°C° 0 mm 3 m/S 668 mmHg 29%
    18:00 +36°C° 0 mm 3 m/S 668 mmHg 32%
    19:00 +34°C° 0 mm 3 m/S 668 mmHg 40%
    20:00 +30°C° 0 mm 2 m/S 668 mmHg 47%
    21:00 +28°C° 0 mm 2 m/S 668 mmHg 54%
    22:00 +28°C° 0 mm 2 m/S 668 mmHg 57%
    23:00 +27°C° 0 mm 2 m/S 668 mmHg 60%

    26 Juli, Donnerstag

    Zeit Temperatur Niederschläge Wind Luftdruck Luftfeuchtigkeit
    00:00 +26°C° 0 mm 2 m/S 668 mmHg 64%
    01:00 +26°C° 0 mm 2 m/S 668 mmHg 64%
    02:00 +25°C° 0 mm 2 m/S 668 mmHg 65%
    03:00 +25°C° 0 mm 2 m/S 668 mmHg 66%
    04:00 +25°C° 0 mm 2 m/S 668 mmHg 64%
    05:00 +26°C° 0 mm 2 m/S 669 mmHg 63%
    06:00 +26°C° 0 mm 2 m/S 669 mmHg 62%
    07:00 +28°C° 0 mm 2 m/S 669 mmHg 54%
    08:00 +31°C° 0 mm 2 m/S 669 mmHg 46%
    09:00 +34°C° 0 mm 2 m/S 670 mmHg 38%
    10:00 +35°C° 0 mm 2 m/S 670 mmHg 35%
    11:00 +37°C° 0 mm 3 m/S 670 mmHg 31%
    12:00 +38°C° 0 mm 3 m/S 669 mmHg 28%
    13:00 +39°C° 0,3 mm 3 m/S 669 mmHg 27%
    14:00 +39°C° 0,3 mm 3 m/S 669 mmHg 27%
    15:00 +41°C° 0,3 mm 4 m/S 669 mmHg 27%
    16:00 +38°C° 0,4 mm 4 m/S 668 mmHg 31%
    17:00 +37°C° 0,4 mm 3 m/S 668 mmHg 35%
    18:00 +36°C° 0,4 mm 3 m/S 668 mmHg 39%
    19:00 +34°C° 0 mm 3 m/S 668 mmHg 47%
    20:00 +31°C° 0 mm 3 m/S 668 mmHg 54%
    21:00 +29°C° 0 mm 3 m/S 669 mmHg 61%
    22:00 +28°C° 0 mm 3 m/S 669 mmHg 63%
    23:00 +27°C° 0 mm 3 m/S 669 mmHg 66%

    27 Juli, Freitag

    Zeit Temperatur Niederschläge Wind Luftdruck Luftfeuchtigkeit
    00:00 +26°C° 0 mm 3 m/S 669 mmHg 68%
    01:00 +26°C° 0 mm 3 m/S 669 mmHg 69%
    02:00 +25°C° 0 mm 3 m/S 669 mmHg 69%
    03:00 +25°C° 0 mm 3 m/S 668 mmHg 70%
    04:00 +25°C° 0 mm 3 m/S 669 mmHg 69%
    05:00 +25°C° 0 mm 2 m/S 669 mmHg 67%
    06:00 +25°C° 0 mm 2 m/S 669 mmHg 66%
    07:00 +27°C° 0 mm 2 m/S 669 mmHg 58%
    08:00 +29°C° 0 mm 2 m/S 669 mmHg 51%
    09:00 +32°C° 0 mm 2 m/S 670 mmHg 44%
    10:00 +34°C° 0 mm 2 m/S 669 mmHg 40%
    11:00 +36°C° 0 mm 2 m/S 669 mmHg 37%
    12:00 +37°C° 0 mm 3 m/S 669 mmHg 33%
    13:00 +38°C° 0 mm 3 m/S 669 mmHg 32%
    14:00 +38°C° 0 mm 3 m/S 668 mmHg 32%
    15:00 +38°C° 0 mm 4 m/S 668 mmHg 31%
    16:00 +37°C° 0 mm 4 m/S 668 mmHg 35%
    17:00 +36°C° 0 mm 5 m/S 668 mmHg 39%
    18:00 +35°C° 0 mm 5 m/S 667 mmHg 43%
    19:00 +33°C° 0 mm 5 m/S 668 mmHg 46%
    20:00 +30°C° 0 mm 4 m/S 668 mmHg 50%
    21:00 +28°C° 0 mm 3 m/S 668 mmHg 53%
    22:00 +27°C° 0 mm 3 m/S 668 mmHg 53%
    23:00 +26°C° 0 mm 3 m/S 668 mmHg 52%

    28 Juli, Samstag

    Zeit Temperatur Niederschläge Wind Luftdruck Luftfeuchtigkeit
    00:00 +25°C° 0 mm 3 m/S 668 mmHg 52%
    01:00 +25°C° 0 mm 3 m/S 668 mmHg 52%
    02:00 +24°C° 0 mm 3 m/S 668 mmHg 52%
    03:00 +24°C° 0 mm 3 m/S 668 mmHg 52%
    04:00 +24°C° 0 mm 3 m/S 668 mmHg 51%
    05:00 +24°C° 0 mm 2 m/S 668 mmHg 51%
    06:00 +24°C° 0 mm 2 m/S 668 mmHg 51%
    07:00 +27°C° 0 mm 2 m/S 668 mmHg 45%
    08:00 +29°C° 0 mm 2 m/S 668 mmHg 40%
    09:00 +32°C° 0 mm 2 m/S 669 mmHg 35%
    10:00 +34°C° 0 mm 2 m/S 669 mmHg 32%
    11:00 +36°C° 0 mm 3 m/S 668 mmHg 29%
    12:00 +37°C° 0 mm 3 m/S 668 mmHg 27%
    13:00 +38°C° 0 mm 3 m/S 668 mmHg 26%
    14:00 +39°C° 0 mm 3 m/S 668 mmHg 25%
    15:00 +40°C° 0 mm 4 m/S 668 mmHg 24%
    16:00 +38°C° 0 mm 4 m/S 667 mmHg 27%
    17:00 +37°C° 0 mm 4 m/S 667 mmHg 31%
    18:00 +36°C° 0 mm 4 m/S 667 mmHg 34%
    19:00 +33°C° 0 mm 4 m/S 667 mmHg 37%
    20:00 +30°C° 0 mm 4 m/S 667 mmHg 40%
    21:00 +27°C° 0 mm 3 m/S 667 mmHg 43%
    22:00 +27°C° 0 mm 3 m/S 667 mmHg 41%
    23:00 +26°C° 0 mm 3 m/S 667 mmHg 40%
    Mehr zeigen